Content
SEND FEEDBACK

Daily
Averages
Monthly
Summary
United States of America

MORGAN, TEXAS


Home > North America > United States > Texas
Elevation: 760 feet     Latitude: 32 01N     Longitude: 097 39W

WEATHER
 
SELECT A DAY
Number of Records: 237,848;   Date Range: 6/17/04 - 10/18/14
 
SHARE

PRINT THIS DATA

[ ← Previous Day ]
WEATHER ALMANAC - FEBRUARY 13, 2013
[ Next Day → ]
[ °C ]   °F
Weather ElementAverageHighLow
Temperature45.1 °F55.4 °F (2:55 pm)35.6 °F (7:15 am)
Dewpoint35 °F37.4 °F (10:35 am)28.4 °F (5:15 pm)
Humidity71 %100 % (8:15 am)36 % (5:15 pm)
Barometer30.10 in30.18 in (10:15 am)30.05 in (5:35 pm)
Wind Speed7.3 mph20.7 mph (12:55 am)
Wind Gust28.8 mph (12:55 am)
Weather ElementAverage
Visibility10 mi
Wind DirectionWSW (244.8 °)

Weather ElementTotal
Precipitation---
Heating Degree Days19.5 (Base 65)
Averaged from 71 records on February 13, 2013
WEATHER CONDITIONS BREAKOUT
WIND DIRECTION BREAKOUT
WEATHER BY HOUR - FEBRUARY 13, 2013
[ °C ]   °F
Local TimeTemperatureDewpointHumidityBarometerVisibilityWind DirectionWind SpeedGust SpeedPrecipitationEventsConditions
12:35 AM39.2 °F35.6 °F87 %30.09 in10.0 miWNW (300°)16.1 mph21.9 mphOvercast
12:55 AM39.2 °F35.6 °F87 %30.09 in10.0 miNW (320°)20.7 mph28.8 mphOvercast
1:15 AM39.2 °F35.6 °F87 %30.09 in10.0 miNW (310°)17.3 mph26.5 mphOvercast
1:35 AM39.2 °F35.6 °F87 %30.10 in10.0 miNW (320°)17.3 mph28.8 mphOvercast
1:55 AM39.2 °F35.6 °F87 %30.10 in10.0 miNW (320°)12.7 mphOvercast
2:15 AM39.2 °F35.6 °F87 %30.10 in10.0 miNNW (330°)10.4 mphOvercast
2:35 AM39.2 °F35.6 °F87 %30.10 in10.0 miNNW (330°)9.2 mph17.3 mphOvercast
2:55 AM39.2 °F35.6 °F87 %30.10 in10.0 miNNW (330°)10.4 mphOvercast
3:15 AM39.2 °F35.6 °F87 %30.10 in10.0 miNW (310°)13.8 mphOvercast
3:35 AM39.2 °F35.6 °F87 %30.10 in10.0 miNW (310°)16.1 mph19.6 mphOvercast
3:55 AM39.2 °F35.6 °F87 %30.10 in10.0 miNNW (330°)15.0 mphOvercast
4:15 AM39.2 °F35.6 °F87 %30.10 in10.0 miNNW (330°)11.5 mph17.3 mphOvercast
4:35 AM39.2 °F35.6 °F87 %30.10 in10.0 miNW (310°)13.8 mphOvercast
4:55 AM39.2 °F35.6 °F87 %30.11 in10.0 miNNW (330°)10.4 mphOvercast
5:15 AM39.2 °F35.6 °F87 %30.11 in10.0 miNW (310°)10.4 mphOvercast
5:35 AM39.2 °F35.6 °F87 %30.11 in10.0 miNW (310°)9.2 mphOvercast
5:55 AM37.4 °F35.6 °F93 %30.12 in10.0 miNNW (330°)9.2 mphOvercast
6:15 AM37.4 °F35.6 °F93 %30.12 in10.0 miNNW (330°)6.9 mphOvercast
6:35 AM37.4 °F35.6 °F93 %30.12 in10.0 miNW (310°)4.6 mphOvercast
6:55 AM37.4 °F35.6 °F93 %30.13 in10.0 miNW (310°)4.6 mphOvercast
7:15 AM35.6 °F33.8 °F93 %30.14 in10.0 miWNW (290°)3.5 mphMostly Cloudy
7:35 AM35.6 °F33.8 °F93 %30.14 in10.0 miNW (310°)5.8 mphPartly Cloudy
7:55 AM35.6 °F33.8 °F93 %30.15 in10.0 miNW (320°)5.8 mphClear
8:15 AM35.6 °F35.6 °F100 %30.15 in10.0 miNW (310°)4.6 mphClear
8:35 AM37.4 °F35.6 °F93 %30.15 in10.0 miNW (310°)9.2 mphClear
8:55 AM39.2 °F35.6 °F87 %30.16 in10.0 miNW (320°)8.1 mphPartly Cloudy
9:15 AM39.2 °F35.6 °F87 %30.17 in10.0 miNNW (340°)5.8 mphScattered Clouds
9:35 AM41.0 °F35.6 °F81 %30.17 in10.0 miNW (320°)8.1 mphPartly Cloudy
9:55 AM42.8 °F35.6 °F76 %30.17 in10.0 miNNW (330°)8.1 mphClear
10:15 AM42.8 °F35.6 °F76 %30.18 in10.0 miNW (310°)5.8 mphClear
10:35 AM44.6 °F37.4 °F76 %30.18 in10.0 miNNW (340°)6.9 mphClear
10:55 AM44.6 °F37.4 °F76 %30.18 in10.0 miNorth (360°)5.8 mphClear
11:15 AM46.4 °F37.4 °F71 %30.17 in10.0 miNorth (360°)4.6 mphClear
11:35 AM46.4 °F37.4 °F71 %30.16 in10.0 miENE (60°)3.5 mphClear
11:55 AM48.2 °F37.4 °F66 %30.15 in10.0 miNorth (360°)5.8 mphClear
12:15 PM48.2 °F35.6 °F62 %30.15 in10.0 miNNE (20°)5.8 mphClear
12:35 PM50.0 °F37.4 °F62 %30.14 in10.0 miNE (50°)4.6 mphClear
12:55 PM51.8 °F37.4 °F58 %30.13 in10.0 miNNE (30°)3.5 mphClear
1:15 PM51.8 °F35.6 °F54 %30.12 in10.0 miNE (40°)4.6 mphClear
1:35 PM51.8 °F35.6 °F54 %30.11 in10.0 miNorth (350°)4.6 mphClear
1:55 PM53.6 °F35.6 °F51 %30.09 in10.0 miCalmClear
2:15 PM53.6 °F35.6 °F51 %30.09 in10.0 miNNW (330°)3.5 mphClear
2:35 PM53.6 °F35.6 °F51 %30.08 in10.0 miWest (280°)4.6 mphClear
2:55 PM55.4 °F33.8 °F44 %30.07 in10.0 miNW (310°)4.6 mphClear
3:15 PM53.6 °F33.8 °F47 %30.07 in10.0 miCalmClear
3:35 PM55.4 °F32.0 °F41 %30.06 in10.0 miNNE (20°)3.5 mphClear
3:55 PM55.4 °F32.0 °F41 %30.06 in10.0 miWSW (250°)4.6 mphClear
4:15 PM55.4 °F32.0 °F41 %30.06 in10.0 miWest (280°)3.5 mphClear
4:35 PM55.4 °F32.0 °F41 %30.06 in10.0 miWest (260°)6.9 mphClear
4:55 PM55.4 °F30.2 °F38 %30.06 in10.0 miWest (280°)4.6 mphClear
5:15 PM55.4 °F28.4 °F36 %30.06 in10.0 miWest (270°)4.6 mphClear
5:35 PM55.4 °F28.4 °F36 %30.05 in10.0 miWest (260°)4.6 mphClear
5:55 PM55.4 °F30.2 °F38 %30.05 in10.0 miSW (220°)3.5 mphClear
6:15 PM53.6 °F28.4 °F38 %30.05 in10.0 miSouth (180°)3.5 mphClear
6:35 PM53.6 °F30.2 °F41 %30.05 in10.0 miSouth (170°)4.6 mphClear
6:55 PM51.8 °F32.0 °F47 %30.05 in10.0 miSSE (160°)5.8 mphClear
7:15 PM50.0 °F33.8 °F54 %30.05 in10.0 miSouth (170°)6.9 mphClear
7:35 PM48.2 °F35.6 °F62 %30.05 in10.0 miSouth (170°)6.9 mphClear
7:55 PM48.2 °F35.6 °F62 %30.06 in10.0 miSouth (170°)6.9 mphClear
8:15 PM46.4 °F35.6 °F66 %30.06 in10.0 miSouth (170°)6.9 mphClear
8:35 PM46.4 °F35.6 °F66 %30.06 in10.0 miSouth (170°)6.9 mphClear
8:55 PM46.4 °F35.6 °F66 %30.06 in10.0 miSSE (160°)6.9 mphClear
9:15 PM46.4 °F35.6 °F66 %30.06 in10.0 miSouth (170°)8.1 mphClear
9:35 PM44.6 °F37.4 °F76 %30.07 in10.0 miSouth (170°)8.1 mphClear
9:55 PM44.6 °F37.4 °F76 %30.07 in10.0 miSouth (180°)6.9 mphClear
10:15 PM44.6 °F37.4 °F76 %30.07 in10.0 miSouth (180°)8.1 mphClear
10:35 PM44.6 °F37.4 °F76 %30.08 in10.0 miSouth (170°)6.9 mphClear
10:55 PM44.6 °F37.4 °F76 %30.08 in10.0 miSouth (180°)6.9 mphClear
11:15 PM42.8 °F37.4 °F81 %30.08 in10.0 miSouth (180°)5.8 mphClear
11:35 PM42.8 °F37.4 °F81 %30.08 in10.0 miSouth (180°)5.8 mphClear
11:55 PM42.8 °F37.4 °F81 %30.08 in10.0 miSouth (180°)5.8 mphClear
Hourly data recorded from KCPT, located miles away from Morgan, Texas







STORIES FROM OUR PARTNERS